[[{"header":{"parameterUnit":"m.s-1","parameterCategory":1,"la1":30.2991,"la2":30.254,"lo1":-89.0895,"lo2":-89.0444,"dy":0.0017,"dx":0.0017,"nx":28,"ny":28,"refTime":"2025-11-18T03:00:00:Z","depth":0,"parameterNumber":2,"parameterNumberName":"U-component_of_WINDS"},"data":[0,0,0,0,0,0,0,0,0,0,0,0,0,0,0,0,0,0,0,0,0,0,0,0,0,0,0,0,0,0,0,0,0,0,0,0,0,0,0,0,0,0,0,0,0,0,0,0,0,0,0,0,0,0,0,0,0,0,-1.4692,-1.4693,0,-1.476,-1.476,-1.4761,-1.4779,-1.4779,-1.4778,-1.4778,-1.4848,-1.485,-1.4853,0,0,0,0,0,0,0,0,0,0,0,0,0,-1.4583,-1.4585,-1.4692,-1.4693,-1.4694,-1.4759,-1.476,-1.4761,-1.4779,-1.4779,-1.4778,-1.4778,-1.4847,-1.485,-1.4853,0,0,0,0,0,0,0,0,0,0,0,0,0,-1.4638,-1.4586,-1.4692,-1.4711,-1.4713,-1.4759,-1.476,-1.4762,-1.4779,-1.4779,-1.4778,-1.4778,-1.4847,-1.485,-1.4853,-1.4886,0,0,-1.4863,-1.4865,0,0,0,0,0,0,0,0,-1.4635,-1.4642,-1.4707,-1.471,-1.4712,-1.476,-1.4748,-1.4803,-1.478,-1.4754,-1.4778,-1.4777,-1.482,-1.4825,-1.4839,-1.4889,-1.4892,-1.4864,-1.4866,-1.4867,-1.4868,0,0,0,0,0,0,0,-1.4631,-1.464,-1.4719,-1.4708,-1.4711,-1.4717,-1.4724,-1.4758,-1.479,-1.4756,-1.4758,-1.4766,-1.4821,-1.4836,-1.4841,-1.4893,-1.4864,-1.4867,-1.4869,-1.487,-1.4976,-1.4977,0,0,0,0,0,0,-1.4624,-1.4636,-1.4717,-1.4721,-1.4671,-1.4719,-1.4727,-1.4746,-1.4789,-1.4795,-1.4766,-1.4766,-1.483,-1.4837,-1.4843,-1.4885,-1.4867,-1.487,-1.4872,-1.4975,-1.4976,-1.4977,0,0,0,0,0,0,-1.4622,-1.4631,-1.4714,-1.4679,-1.469,-1.4722,-1.4742,-1.4747,-1.4762,-1.4796,-1.4802,-1.4775,-1.483,-1.4839,-1.4876,-1.4888,-1.4872,-1.4875,-1.4974,-1.4976,-1.4977,-1.4969,0,0,0,0,0,0,-1.4618,-1.463,-1.4642,-1.4679,-1.4692,-1.4744,-1.4743,-1.4749,-1.4768,-1.4769,-1.4807,-1.4812,-1.483,-1.487,-1.4879,-1.4892,-1.4878,-1.4973,-1.4975,-1.4976,-1.4968,-1.497,-1.4971,0,0,0,0,0,-1.4614,-1.4637,-1.4642,-1.4652,-1.4707,-1.4745,-1.4752,-1.4772,-1.4769,-1.4781,-1.4804,-1.4811,-1.4886,-1.4874,-1.4884,-1.4898,-1.4973,-1.4974,-1.4976,-1.4968,-1.497,-1.4971,0,0,0,0,0,0,-1.46,-1.4642,-1.4648,-1.4684,-1.4711,-1.4748,-1.4764,-1.4773,-1.4802,-1.4801,-1.4825,-1.4834,-1.4869,-1.4888,-1.4874,-1.4934,-1.4929,-1.4933,-1.492,-1.4922,-1.4923,-1.4918,-1.488,0,0,0,0,0,-1.4601,-1.4627,-1.4663,-1.4691,-1.4704,-1.4732,-1.4749,-1.4762,-1.4791,-1.4802,-1.4828,-1.4856,-1.4886,-1.4905,-1.4935,-1.4972,-1.4981,-1.4987,-1.4989,-1.499,-1.4992,-1.5015,-1.5018,-1.4983,-1.4983,-1.4983,0,0,-1.4603,-1.4629,-1.4644,-1.4688,-1.4711,-1.4738,-1.4741,-1.477,-1.4791,-1.4807,-1.4843,-1.4863,-1.4897,-1.4934,-1.4952,-1.4951,-1.5004,-1.4992,-1.4992,-1.4995,-1.5017,-1.502,-1.5023,-1.4984,-1.4984,-1.4984,0,0,-1.4621,-1.4643,-1.4669,-1.4692,-1.4726,-1.4745,-1.4751,-1.4788,-1.4801,-1.4838,-1.4851,-1.4878,-1.4929,-1.4952,-1.4971,-1.5001,-1.5009,-1.501,-1.5017,-1.5039,-1.5042,-1.5044,-1.5055,-1.5059,-1.5013,-1.5013,-1.5013,0,-1.4619,-1.466,-1.4681,-1.471,-1.473,-1.4746,-1.4773,-1.4795,-1.4837,-1.485,-1.4849,-1.4914,-1.4938,-1.4982,-1.4989,-1.5004,-1.5013,-1.5005,-1.5039,-1.5042,-1.5045,-1.5056,-1.506,-1.5013,-1.5013,-1.5013,-1.5013,0,-1.4657,-1.4686,-1.4703,-1.4743,-1.4765,-1.4793,-1.4819,-1.4839,-1.4851,-1.4871,-1.4909,-1.4939,-1.4975,-1.4987,-1.4999,-1.5033,-1.5032,-1.5034,-1.503,-1.5048,-1.5058,-1.5063,-1.5013,-1.5013,-1.5013,-1.5013,0,0,-1.4665,-1.4718,-1.4724,-1.4743,-1.4783,-1.4806,-1.4836,-1.4872,-1.4888,-1.4918,-1.4944,-1.4988,-1.4991,-1.5013,-1.5028,-1.5047,-1.507,-1.5048,-1.5049,-1.5051,-1.5111,-1.5108,-1.5112,-1.5076,-1.5077,-1.5078,-1.5108,0,-1.4688,-1.474,-1.4761,-1.4804,-1.4831,-1.4849,-1.4875,-1.4903,-1.4923,-1.495,-1.4973,-1.5003,-1.5005,-1.5019,-1.5038,-1.5063,-1.5082,-1.5061,-1.5101,-1.5102,-1.5091,-1.5118,-1.5114,-1.5141,-1.5112,-1.5113,-1.5113,0,-1.4721,-1.475,-1.4796,-1.4834,-1.4846,-1.4869,-1.4904,-1.493,-1.4963,-1.4976,-1.5001,-1.5016,-1.5049,-1.5044,-1.5091,-1.5076,-1.5095,-1.5109,-1.5111,-1.5115,-1.5108,-1.5122,-1.515,-1.5153,-1.512,-1.512,-1.5119,0,-1.4722,-1.4774,-1.4808,-1.4824,-1.4869,-1.4885,-1.4905,-1.4937,-1.4958,-1.4989,-1.5003,-1.5038,-1.5057,-1.5085,-1.5109,-1.5103,-1.5154,-1.5151,-1.5167,-1.5166,-1.5175,-1.5174,-1.5206,-1.5188,-1.5188,-1.5188,-1.5188,0,-1.4745,-1.4772,-1.4809,-1.483,-1.4862,-1.4887,-1.4918,-1.4939,-1.4969,-1.4995,-1.5013,-1.5037,-1.5069,-1.5098,-1.5117,-1.5154,-1.5162,-1.5175,-1.5179,-1.5172,-1.5171,-1.5184,-1.5182,-1.5189,-1.5189,-1.5189,-1.5189,0,-1.4752,-1.4777,-1.4816,-1.4856,-1.4867,-1.4889,-1.4924,-1.4945,-1.4967,-1.5,-1.501,-1.5044,-1.5079,-1.5107,-1.5153,-1.5166,-1.5205,-1.521,-1.5193,-1.5195,-1.5209,-1.5207,-1.525,-1.5257,-1.5235,-1.5235,-1.5235,0,-1.4764,-1.4785,-1.4828,-1.4847,-1.4866,-1.4896,-1.4917,-1.4944,-1.4966,-1.5006,-1.5024,-1.506,-1.5091,-1.5147,-1.5176,-1.5212,-1.5219,-1.5231,-1.5224,-1.5217,-1.5219,-1.5217,-1.5219,-1.5232,-1.5232,-1.5232,-1.5232,0,-1.4783,-1.4795,-1.4825,-1.4859,-1.4884,-1.4913,-1.4942,-1.4957,-1.4989,-1.5013,-1.5049,-1.5073,-1.5121,-1.5157,-1.5196,-1.5218,-1.5231,-1.5234,-1.524,-1.5232,-1.5222,-1.5228,-1.5195,-1.5233,-1.5233,-1.5233,-1.5232,-1.5232,-1.4793,-1.4813,-1.4846,-1.4879,-1.4904,-1.4932,-1.4954,-1.4979,-1.5009,-1.505,-1.5064,-1.5102,-1.5137,-1.5191,-1.5213,-1.5244,-1.5245,-1.5253,-1.5255,-1.5256,-1.5255,-1.5218,-1.5252,-1.5252,-1.5252,-1.5252,-1.5252,0,-1.4813,-1.4836,-1.4866,-1.4906,-1.4932,-1.4942,-1.4975,-1.4997,-1.503,-1.5061,-1.5091,-1.5133,-1.517,-1.5203,-1.5241,-1.5259,-1.5266,-1.5268,-1.5267,-1.5272,-1.5252,-1.5244,-1.5262,-1.5262,-1.5262,-1.5262,-1.5262,-1.5262,-1.4826,-1.4861,-1.4878,-1.4926,-1.4949,-1.4985,-1.5004,-1.503,-1.5055,-1.5101,-1.5131,-1.5153,-1.5185,-1.5226,-1.526,-1.5269,-1.5283,-1.5283,-1.5294,-1.5275,-1.5273,-1.5272,-1.5264,-1.5286,-1.5286,-1.5311,-1.5311,-1.5311]},{"header":{"parameterUnit":"m.s-1","parameterCategory":1,"la1":30.2991,"la2":30.254,"lo1":-89.0895,"lo2":-89.0444,"dy":0.0017,"dx":0.0017,"nx":28,"ny":28,"refTime":"2025-11-18T03:00:00:Z","depth":0,"parameterNumber":3,"parameterNumberName":"V-component_of_WINDS"},"data":[0,0,0,0,0,0,0,0,0,0,0,0,0,0,0,0,0,0,0,0,0,0,0,0,0,0,0,0,0,0,0,0,0,0,0,0,0,0,0,0,0,0,0,0,0,0,0,0,0,0,0,0,0,0,0,0,0,0,2.1101,2.1102,0,2.1129,2.1129,2.1129,2.1148,2.1148,2.1148,2.1148,2.1173,2.1174,2.1174,0,0,0,0,0,0,0,0,0,0,0,0,0,2.1064,2.1064,2.1101,2.1102,2.1102,2.1129,2.1129,2.1129,2.1148,2.1148,2.1148,2.1148,2.1173,2.1174,2.1175,0,0,0,0,0,0,0,0,0,0,0,0,0,2.1084,2.1065,2.1101,2.1114,2.1116,2.1128,2.1129,2.1129,2.1148,2.1148,2.1148,2.1148,2.1173,2.1174,2.1175,2.1175,0,0,2.1177,2.1177,0,0,0,0,0,0,0,0,2.1083,2.1086,2.1112,2.1114,2.1115,2.1135,2.1125,2.1145,2.1148,2.1136,2.1148,2.1148,2.116,2.1162,2.1167,2.1177,2.1178,2.1177,2.1178,2.1178,2.1178,0,0,0,0,0,0,0,2.1082,2.1085,2.1112,2.1112,2.1114,2.1119,2.1122,2.1129,2.1146,2.1137,2.1138,2.1141,2.1161,2.1166,2.1167,2.1178,2.1177,2.1178,2.1178,2.1179,2.1192,2.1191,0,0,0,0,0,0,2.1078,2.1083,2.1111,2.1113,2.1099,2.1119,2.1123,2.1128,2.1146,2.1149,2.1141,2.1142,2.1164,2.1167,2.1168,2.1172,2.1178,2.1179,2.1179,2.1192,2.1192,2.1191,0,0,0,0,0,0,2.1078,2.1081,2.111,2.1099,2.1103,2.112,2.1126,2.1129,2.1134,2.115,2.1153,2.1143,2.1165,2.1167,2.1174,2.1173,2.1179,2.118,2.1192,2.1192,2.1191,2.1177,0,0,0,0,0,0,2.1076,2.108,2.1081,2.1098,2.1103,2.1115,2.1126,2.1129,2.1135,2.1137,2.1152,2.1155,2.1165,2.1173,2.1175,2.1174,2.1181,2.1192,2.1192,2.1191,2.1178,2.1177,2.1175,0,0,0,0,0,2.1075,2.1075,2.1081,2.1084,2.1104,2.1115,2.1118,2.1131,2.1135,2.1136,2.1146,2.1154,2.1173,2.1173,2.1176,2.1175,2.1192,2.1192,2.1192,2.1178,2.1177,2.1175,0,0,0,0,0,0,2.1055,2.1077,2.1084,2.109,2.1101,2.1118,2.112,2.1128,2.1137,2.1138,2.1153,2.1156,2.1162,2.1169,2.1169,2.1178,2.1183,2.1184,2.1173,2.1171,2.117,2.1168,2.1181,0,0,0,0,0,2.1052,2.106,2.1078,2.1081,2.1087,2.1102,2.1107,2.1117,2.1128,2.1132,2.1143,2.1154,2.1162,2.1167,2.1175,2.1179,2.1183,2.118,2.1179,2.1178,2.1178,2.1182,2.1181,2.119,2.119,2.119,0,0,2.1044,2.1057,2.1061,2.1078,2.1087,2.1095,2.1106,2.1113,2.1119,2.1133,2.1141,2.1149,2.1162,2.1168,2.1171,2.1174,2.1176,2.1177,2.1176,2.1177,2.1181,2.118,2.1179,2.119,2.119,2.119,0,0,2.1034,2.1045,2.1049,2.1059,2.1074,2.1085,2.1086,2.1103,2.111,2.1118,2.113,2.1136,2.115,2.1159,2.1165,2.1161,2.1169,2.1163,2.1157,2.116,2.116,2.1159,2.1158,2.1158,2.1163,2.1163,2.1163,0,2.1023,2.1035,2.105,2.1058,2.1065,2.108,2.1085,2.1093,2.111,2.1114,2.1118,2.1137,2.1146,2.1155,2.1154,2.1159,2.1161,2.1162,2.1159,2.1158,2.1158,2.1157,2.1157,2.1163,2.1163,2.1163,2.1163,0,2.1021,2.1029,2.1031,2.1049,2.1056,2.1062,2.1078,2.1084,2.1092,2.1103,2.1111,2.1124,2.1135,2.1138,2.1146,2.1148,2.115,2.1156,2.1162,2.1156,2.1156,2.1156,2.1161,2.1162,2.1162,2.1162,0,0,2.0998,2.1025,2.1026,2.1035,2.1053,2.106,2.1067,2.108,2.1085,2.1096,2.1102,2.1114,2.1121,2.1128,2.1137,2.114,2.1138,2.1146,2.1147,2.1144,2.1142,2.1138,2.1137,2.1143,2.1143,2.1143,2.1141,0,2.0992,2.1006,2.1021,2.1029,2.1038,2.1053,2.106,2.1071,2.1082,2.109,2.1101,2.111,2.1117,2.1122,2.1126,2.1137,2.1137,2.1137,2.1149,2.1149,2.1146,2.1137,2.1132,2.113,2.1141,2.1141,2.1141,0,2.0986,2.0998,2.1008,2.1028,2.1032,2.1037,2.1051,2.1059,2.1073,2.108,2.109,2.11,2.1108,2.1114,2.1125,2.1125,2.1131,2.1137,2.1137,2.1139,2.1145,2.1139,2.1129,2.1129,2.1141,2.1141,2.1141,0,2.0969,2.0988,2.0997,2.1004,2.1027,2.103,2.104,2.1054,2.1062,2.1074,2.1079,2.1091,2.1097,2.1107,2.112,2.1123,2.1131,2.1137,2.1137,2.1137,2.1138,2.1137,2.1129,2.1141,2.1141,2.1141,2.1141,0,2.0961,2.0966,2.0991,2.0996,2.1003,2.102,2.1027,2.1037,2.105,2.1058,2.1072,2.1079,2.1096,2.1105,2.1115,2.1124,2.1127,2.1133,2.1136,2.1132,2.1131,2.1136,2.1136,2.1141,2.1141,2.1141,2.1141,0,2.0943,2.096,2.0971,2.0992,2.0998,2.1002,2.102,2.1026,2.1038,2.1048,2.1051,2.1069,2.108,2.1095,2.111,2.1117,2.1125,2.1129,2.1121,2.1122,2.1122,2.1122,2.1116,2.1117,2.1127,2.1127,2.1127,0,2.0937,2.0942,2.0965,2.0971,2.0981,2.0991,2.1,2.1017,2.1025,2.1042,2.1046,2.1059,2.107,2.1088,2.1102,2.1114,2.1119,2.1116,2.1121,2.1117,2.1119,2.1119,2.112,2.1115,2.1115,2.1114,2.1114,0,2.0924,2.0932,2.0944,2.0959,2.0969,2.0981,2.0994,2.0999,2.1019,2.1027,2.104,2.1048,2.1065,2.1078,2.1093,2.1102,2.1111,2.1113,2.1114,2.111,2.1105,2.1108,2.1118,2.1113,2.1113,2.1113,2.1113,2.1113,2.0912,2.0918,2.0936,2.0949,2.0961,2.0973,2.098,2.0994,2.1005,2.1021,2.103,2.1043,2.1058,2.1079,2.1088,2.1098,2.1101,2.1102,2.1102,2.1102,2.1101,2.1104,2.11,2.11,2.11,2.11,2.11,0,2.0901,2.0913,2.0925,2.0944,2.0954,2.0964,2.0979,2.0987,2.0998,2.1012,2.1024,2.1039,2.1052,2.1068,2.1081,2.1086,2.1091,2.1089,2.1089,2.1091,2.1097,2.1095,2.1085,2.1085,2.1085,2.1085,2.1085,2.1085,2.0896,2.0907,2.0918,2.0935,2.0947,2.0961,2.0969,2.098,2.0992,2.1008,2.102,2.1031,2.1045,2.1061,2.1073,2.1077,2.1082,2.1079,2.1085,2.1089,2.1091,2.1092,2.1091,2.108,2.108,2.1078,2.1078,2.1078]}]]